Regional Weather Roundup
Issued by NWS

Home | Current Version | Previous Version | Graphics & Text | Print | Product List | Glossary On
Versions: 1 2 3 4 5 6 7 8 9 10 11 12 13 14 15 16 17 18 19 20 21 22 23 24 25 26 27 28 29 30 31 32 33 34 35 36 37 38 39 40 41 42 43 44 45 46 47 48 49 50
342
ASUS44 KLIX 270010
RWRLA
LOUISIANA WEATHER ROUNDUP
NATIONAL WEATHER SERVICE NEW ORLEANS LA
600 PM CST MON JAN 26 2015

NOTE: "FAIR" INDICATES FEW OR NO CLOUDS BELOW 12,000 FEET WITH NO
      SIGNIFICANT WEATHER AND/OR OBSTRUCTIONS TO VISIBILITY.
      SKY/WX - SKY CONDITION AND SIGNIFICANT WEATHER.
      TMP - AIR TEMPERATURE.    DP   - DEWPOINT TEMPERATURE.
      RH  - RELATIVE HUMIDITY.  PRES - PRESSURE.
      HX  - HEAT INDEX.         WCI  - WIND CHILL INDEX.

*  THESE STATIONS ARE NOT NWS OR FAA STATIONS AND ARE NOT UNDER
   NWS QUALITY CONTROL.

LAZ040-048-061>063-065-066-069-270100-
SOUTHEAST LOUISIANA

CITY           SKY/WX    TMP DP  RH WIND       PRES   REMARKS
N.O. AUDUBON     N/A     56  37  49 MISG        N/A
6HR MIN TEMP:  56; 6HR MAX TEMP:  62;

N.O. INTL ARPT PTCLDY    56  33  42 NW5       30.09R
6HR MIN TEMP:  56; 6HR MAX TEMP:  62;

N.O. LAKEFRONT CLEAR     55  45  68 W7        30.09R
6HR MIN TEMP:  55; 6HR MAX TEMP:  58;

N.O. DOWNTOWN* FAIR      59  30  33 CALM      30.09R
6HR MIN TEMP:  55; 6HR MAX TEMP:  63;

SLIDELL        CLEAR     53  37  54 CALM      30.07R
6HR MIN TEMP:  53; 6HR MAX TEMP:  66;

BATON ROUGE    CLEAR     51  34  52 W6        30.10R
6HR MIN TEMP:  51; 6HR MAX TEMP:  63;

BOOTHVILLE     CLEAR     53  40  61 NW6       30.09R
6HR MIN TEMP:  52; 6HR MAX TEMP:  59;

BELLE CHASSE   PTCLDY    56  31  38 CALM      30.08R
6HR MIN TEMP:  56; 6HR MAX TEMP:  63;

BOGALUSA*        N/A     52  35  52 NW3       30.09R
6HR MIN TEMP:  52; 6HR MAX TEMP:  63;

GALLIANO*      CLEAR     56  38  50 MISG      30.10R
6HR MIN TEMP:  56; 6HR MAX TEMP:  65;

NEW ROADS*     FAIR      53  38  56 CALM      30.10S
6HR MIN TEMP:  53; 6HR MAX TEMP:  59;

GONZALES*      FAIR      56  36  46 CALM      30.10R
6HR MIN TEMP:  56; 6HR MAX TEMP:  63;

HAMMOND*       CLEAR     54  34  47 CALM      30.10R
HOUMA*         CLEAR     55  36  47 NW5       30.10R
PORT FOURCHON* CLEAR     55  46  71 W15G21    30.13R

$$

LAZ041-044-053-054-270100-
SOUTHWEST LOUISIANA

CITY           SKY/WX    TMP DP  RH WIND       PRES   REMARKS
LAKE CHARLES   CLEAR     58  36  43 W3        30.11S
6HR MIN TEMP:  58; 6HR MAX TEMP:  66;

LAFAYETTE      CLEAR     55  36  48 CALM      30.11S
6HR MIN TEMP:  54; 6HR MAX TEMP:  62;

PATTERSON      CLEAR     55  34  44 NW6       30.13R
6HR MIN TEMP:  55; 6HR MAX TEMP:  61;

SALT POINT       N/A     54  45  71 W7        30.11R
6HR MIN TEMP:  54; 6HR MAX TEMP:  57;

NEW IBERIA     CLEAR     54  39  57 W5        30.12R
CHENAULT AIRPK NOT AVBL

$$

LAZ027-028-270100-
CENTRAL LOUISIANA

CITY           SKY/WX    TMP DP  RH WIND       PRES   REMARKS
FORT POLK      CLEAR     56  37  49 SW1       30.09S
6HR MIN TEMP:  56; 6HR MAX TEMP:  64;

ALEXANDRIA INT CLEAR     54  37  52 CALM      30.08R
6HR MIN TEMP:  54; 6HR MAX TEMP:  61;

ALEXANDRIA     CLEAR     53  37  54 W5        30.09R
6HR MIN TEMP:  53; 6HR MAX TEMP:  63;


$$

LAZ001-002-270100-
NORTHWEST LOUISIANA

CITY           SKY/WX    TMP DP  RH WIND       PRES   REMARKS
SHREVEPORT     PTCLDY    59  34  39 SW3       30.06S
6HR MIN TEMP:  56; 6HR MAX TEMP:  65;

BARKSDALE AFB  CLEAR     60  33  36 SW6       30.06S
6HR MIN TEMP:  54; 6HR MAX TEMP:  64;

DTN SHREVEPORT CLEAR     59  33  37 SW5       30.06S
6HR MIN TEMP:  53; 6HR MAX TEMP:  63;


$$

LAZ014-016-270100-
NORTHEAST LOUISIANA

CITY           SKY/WX    TMP DP  RH WIND       PRES   REMARKS
MONROE         CLEAR     53  34  48 SW7       30.06S
6HR MIN TEMP:  52; 6HR MAX TEMP:  61;

TALLULAH       CLEAR     49  36  61 S3        30.06S
6HR MIN TEMP:  49; 6HR MAX TEMP:  56;


$$




USA.gov is the U.S. government's official web portal to all federal, state and local government web resources and services.